Faribault, MN

4:30 AM CDT on September 26, 2016 (GMT -0500)
Faribault Municipal

Weather History for KFBL - April, 2013

Change the Weather History Date:

Tuesday, April 16, 2013

  Actual Average Record
Temperature  
Mean Temperature 36 °F -  
Max Temperature 42 °F 58 °F 87 °F (2002)
Min Temperature 30 °F 37 °F 18 °F (1961)
Degree Days  
Heating Degree Days 29    
Moisture  
Dew Point 29 °F    
Average Humidity 78    
Maximum Humidity 93    
Minimum Humidity 61    
Precipitation  
Precipitation 0.00 in - - ()
Sea Level Pressure  
Sea Level Pressure 30.18 in    
Wind  
Wind Speed 9 mph (WNW)    
Max Wind Speed 14 mph    
Max Gust Speed 18 mph    
Visibility 10 miles    
Events      
Averages and records for this station are not official NWS values.
T = Trace of Precipitation, MM = Missing Value Source: NWS Daily Summary

Daily Weather History Graph

Daily Weather History Graph

Search for Another Location

Airport or City:

Trip Planner

Search our weather history database for the weather conditions in past years. The results will help you decide how hot, cold, wet, or windy it might be!

Date:

Astronomy

Apr. 16, 2013 Rise Set
Actual Time 6:27 AM CDT 7:59 PM CDT
Civil Twilight 5:57 AM CDT 8:29 PM CDT
Nautical Twilight 5:20 AM CDT 9:06 PM CDT
Astronomical Twilight 4:41 AM CDT 9:46 PM CDT
Moon 10:40 AM CDT (4/16) 1:02 AM CDT (4/16)
Length of Visible Light 14h 32m
Length of Day
13h 31m
Waxing Crescent, 33% of the Moon is Illuminated
Apr 16
Waxing Crescent
Apr 18
First Quarter
Apr 25
Full
May 2
Last Quarter
May 9
New

Hourly Weather History & Observations

Time (CDT) Temp. Windchill Dew Point Humidity Pressure Visibility Wind Dir Wind Speed Gust Speed Precip Events Conditions
12:05 AM 33.8 °F 24.8 °F 28.4 °F 81% 30.00 in 10.0 mi West 12.7 mph - N/A   Clear
12:21 AM 33.8 °F 25.3 °F 28.4 °F 81% 30.00 in 10.0 mi West 11.5 mph - N/A   Clear
12:41 AM 33.8 °F 24.8 °F 28.4 °F 81% 30.01 in 10.0 mi West 12.7 mph - N/A   Clear
1:01 AM 33.8 °F 25.8 °F 28.4 °F 81% 30.00 in 10.0 mi West 10.4 mph - N/A   Clear
1:21 AM 32.0 °F 24.2 °F 28.4 °F 87% 30.00 in 10.0 mi West 9.2 mph - N/A   Clear
1:41 AM 32.0 °F 24.2 °F 28.4 °F 87% 30.01 in 10.0 mi West 9.2 mph - N/A   Clear
2:01 AM 32.0 °F 23.0 °F 28.4 °F 87% 30.01 in 10.0 mi West 11.5 mph 16.1 mph N/A   Clear
2:21 AM 30.2 °F 21.3 °F 28.4 °F 93% 30.00 in 10.0 mi West 10.4 mph 18.4 mph N/A   Clear
2:41 AM 30.2 °F 20.8 °F 28.4 °F 93% 30.00 in 10.0 mi West 11.5 mph - N/A   Clear
3:01 AM 30.2 °F 21.3 °F 28.4 °F 93% 30.02 in 10.0 mi West 10.4 mph - N/A   Clear
3:21 AM 30.2 °F 21.3 °F 28.4 °F 93% 30.01 in 10.0 mi West 10.4 mph - N/A   Clear
3:41 AM 30.2 °F 21.9 °F 26.6 °F 86% 30.02 in 10.0 mi West 9.2 mph - N/A   Clear
4:01 AM 30.2 °F 22.6 °F 26.6 °F 86% 30.04 in 10.0 mi West 8.1 mph - N/A   Clear
4:36 AM 30.2 °F 22.6 °F 26.6 °F 86% 30.05 in 10.0 mi West 8.1 mph - N/A   Mostly Cloudy
4:51 AM 30.2 °F 21.3 °F 26.6 °F 86% 30.05 in 10.0 mi West 10.4 mph - N/A   Overcast
5:01 AM 30.2 °F 21.9 °F 26.6 °F 86% 30.05 in 10.0 mi West 9.2 mph - N/A   Overcast
5:21 AM 30.2 °F 20.8 °F 28.4 °F 93% 30.06 in 10.0 mi West 11.5 mph - N/A   Overcast
5:41 AM 30.2 °F 21.9 °F 28.4 °F 93% 30.07 in 10.0 mi West 9.2 mph - N/A   Overcast
6:01 AM 30.2 °F 21.9 °F 28.4 °F 93% 30.10 in 10.0 mi West 9.2 mph - N/A   Overcast
6:21 AM 30.2 °F 21.3 °F 26.6 °F 86% 30.10 in 10.0 mi WNW 10.4 mph - N/A   Overcast
6:41 AM 30.2 °F 21.9 °F 26.6 °F 86% 30.11 in 10.0 mi WNW 9.2 mph - N/A   Overcast
7:01 AM 30.2 °F 23.4 °F 28.4 °F 93% 30.12 in 10.0 mi WNW 6.9 mph - N/A   Overcast
7:21 AM 30.2 °F 21.3 °F 26.6 °F 86% 30.13 in 10.0 mi WNW 10.4 mph - N/A   Overcast
7:41 AM 30.2 °F 21.9 °F 26.6 °F 86% 30.13 in 10.0 mi WNW 9.2 mph - N/A   Overcast
8:01 AM 30.2 °F 20.8 °F 26.6 °F 86% 30.15 in 10.0 mi WNW 11.5 mph - N/A   Overcast
8:41 AM 32.0 °F 27.5 °F 26.6 °F 80% 30.18 in 10.0 mi West 4.6 mph - N/A   Overcast
9:01 AM 33.8 °F 27.0 °F 26.6 °F 75% 30.18 in 10.0 mi NW 8.1 mph - N/A   Mostly Cloudy
9:21 AM 33.8 °F 24.3 °F 26.6 °F 75% 30.18 in 10.0 mi West 13.8 mph - N/A   Mostly Cloudy
9:41 AM 33.8 °F 25.8 °F 26.6 °F 75% 30.19 in 10.0 mi West 10.4 mph - N/A   Mostly Cloudy
10:01 AM 33.8 °F 28.6 °F 28.4 °F 81% 30.20 in 10.0 mi West 5.8 mph - N/A   Mostly Cloudy
10:21 AM 33.8 °F 27.0 °F 26.6 °F 75% 30.20 in 10.0 mi WNW 8.1 mph - N/A   Mostly Cloudy
10:41 AM 35.6 °F 28.6 °F 28.4 °F 75% 30.21 in 10.0 mi West 9.2 mph - N/A   Scattered Clouds
11:01 AM 35.6 °F 29.2 °F 28.4 °F 75% 30.21 in 10.0 mi WNW 8.1 mph - N/A   Clear
11:21 AM 35.6 °F 29.2 °F 26.6 °F 70% 30.22 in 10.0 mi WNW 8.1 mph - N/A   Clear
11:41 AM 35.6 °F 28.6 °F 28.4 °F 75% 30.23 in 10.0 mi WNW 9.2 mph - N/A   Clear
12:01 PM 37.4 °F 31.4 °F 28.4 °F 70% 30.24 in 10.0 mi West 8.1 mph - N/A   Clear
12:21 PM 37.4 °F 32.8 °F 28.4 °F 70% 30.24 in 10.0 mi West 5.8 mph - N/A   Clear
12:41 PM 37.4 °F 32.8 °F 28.4 °F 70% 30.24 in 10.0 mi NW 5.8 mph - N/A   Clear
1:01 PM 37.4 °F 29.8 °F 28.4 °F 70% 30.24 in 10.0 mi WNW 11.5 mph - N/A   Clear
1:21 PM 37.4 °F 30.8 °F 28.4 °F 70% 30.24 in 10.0 mi WNW 9.2 mph - N/A   Clear
1:41 PM 37.4 °F 32.1 °F 30.2 °F 75% 30.24 in 10.0 mi West 6.9 mph - N/A   Clear
2:01 PM 37.4 °F 31.4 °F 30.2 °F 75% 30.24 in 10.0 mi WNW 8.1 mph - N/A   Clear
2:21 PM 39.2 °F 35.9 °F 30.2 °F 70% 30.24 in 10.0 mi WNW 4.6 mph - N/A   Clear
2:41 PM 39.2 °F 37.0 °F 30.2 °F 70% 30.24 in 10.0 mi NW 3.5 mph - N/A   Clear
3:01 PM 39.2 °F 35.0 °F 30.2 °F 70% 30.24 in 10.0 mi WNW 5.8 mph - N/A   Clear
3:21 PM 39.2 °F 33.6 °F 30.2 °F 70% 30.24 in 10.0 mi WNW 8.1 mph - N/A   Clear
3:41 PM 41.0 °F 36.4 °F 32.0 °F 70% 30.24 in 10.0 mi WNW 6.9 mph - N/A   Scattered Clouds
4:01 PM 41.0 °F 39.0 °F 30.2 °F 65% 30.24 in 10.0 mi NNW 3.5 mph - N/A   Clear
4:21 PM 42.8 °F 40.1 °F 32.0 °F 66% 30.24 in 10.0 mi WNW 4.6 mph - N/A   Clear
4:41 PM 42.8 °F 40.1 °F 30.2 °F 61% 30.24 in 10.0 mi North 4.6 mph - N/A   Scattered Clouds
5:01 PM 42.8 °F 38.6 °F 30.2 °F 61% 30.25 in 10.0 mi NNW 6.9 mph - N/A   Clear
5:21 PM 42.8 °F 39.3 °F 30.2 °F 61% 30.24 in 10.0 mi NNW 5.8 mph - N/A   Clear
5:41 PM 42.8 °F 40.1 °F 30.2 °F 61% 30.25 in 10.0 mi NW 4.6 mph - N/A   Clear
6:01 PM 42.8 °F 40.1 °F 30.2 °F 61% 30.25 in 10.0 mi WNW 4.6 mph - N/A   Clear
6:21 PM 42.8 °F 40.1 °F 30.2 °F 61% 30.25 in 10.0 mi North 4.6 mph - N/A   Clear
6:41 PM 42.8 °F 39.3 °F 30.2 °F 61% 30.25 in 10.0 mi NNW 5.8 mph - N/A   Clear
7:01 PM 41.0 °F 39.0 °F 30.2 °F 65% 30.25 in 10.0 mi NNW 3.5 mph - N/A   Clear
7:21 PM 39.2 °F 37.0 °F 30.2 °F 70% 30.25 in 10.0 mi North 3.5 mph - N/A   Clear
7:41 PM 39.2 °F - 30.2 °F 70% 30.25 in 10.0 mi NNW 2.3 mph - N/A   Clear
8:01 PM 37.4 °F - 30.2 °F 75% 30.26 in 10.0 mi NNW 1.2 mph - N/A   Clear
8:21 PM 37.4 °F - 32.0 °F 81% 30.27 in 10.0 mi NNW 2.3 mph - N/A   Clear
8:41 PM 37.4 °F - 30.2 °F 75% 30.27 in 10.0 mi NNW 2.3 mph - N/A   Clear
9:01 PM 35.6 °F - 30.2 °F 81% 30.29 in 10.0 mi NW 2.3 mph - N/A   Clear
9:21 PM 35.6 °F - 32.0 °F 87% 30.29 in 10.0 mi NNW 2.3 mph - N/A   Clear
9:41 PM 35.6 °F 32.8 °F 30.2 °F 81% 30.30 in 10.0 mi NNW 3.5 mph - N/A   Clear
10:01 PM 35.6 °F 32.8 °F 30.2 °F 81% 30.30 in 10.0 mi NNW 3.5 mph - N/A   Clear
10:21 PM 35.6 °F 32.8 °F 30.2 °F 81% 30.30 in 10.0 mi NNW 3.5 mph - N/A   Clear
10:41 PM 35.6 °F - 30.2 °F 81% 30.30 in 10.0 mi North 2.3 mph - N/A   Clear
11:01 PM 35.6 °F - 30.2 °F 81% 30.30 in 10.0 mi NNW 1.2 mph - N/A   Clear
11:21 PM 33.8 °F 29.6 °F 30.2 °F 87% 30.28 in 10.0 mi NNE 4.6 mph - N/A   Clear
11:41 PM 35.6 °F 32.8 °F 30.2 °F 81% 30.29 in 10.0 mi North 3.5 mph - N/A   Clear